Terug naar catalogus

STARLINK-34341

ActiefCommunicatieSSO
NORAD 64161·PAYLOAD·🇺🇸 United States

Gelanceerd May 27, 2025 vanaf Vandenberg Space Force Base

Loading…

Volgende Passages (komende 24 uur)

TLE

VersSource: CelesTrak SupGP

Epoch: Sep 15, 2026, 02:24 UTC

1 64161C 25112R   26258.10048611  .00005128  00000+0  15916-3 0  2581
2 64161  97.2836 305.2053 0001001  92.3257  44.6118 15.33439001    17

Volg STARLINK-34341 in realtime met AllMySat

Download on the App Store